Location: Cartignies
(50.0929°N, 3.8447°E)
Time: 14:08:24
(UTC+00:00)

Cosmos 2369 Rocket - Pass Details

Date: 12 January 2026
Orbit: 827 x 853 km, 71.0° (Epoch: 16 February)

Event Time Altitude Azimuth Distance (km) Brightness Sun altitude
Rises 17:20:46 0° 328° (NNW) 3,432 5.5 -11.4°
Reaches altitude 10° 17:23:16 10° 325° (NW) 2,491 4.8 -11.8°
Maximum altitude 17:28:52 59° 247° (WSW) 978 2.9 -12.7°
Drops below altitude 10° 17:34:25 10° 170° (S) 2,465 4.7 -13.5°
Sets 17:36:53 0° 166° (SSE) 3,392 5.4 -13.9°
